Change the Weather History Date:

Wednesday, July 10, 2013

  Actual Average Record
Temperature  
Mean Temperature 82 °F 83 °F  
Max Temperature 89 °F 93 °F 98 °F (2007)
Min Temperature 74 °F 72 °F 68 °F (2006)
Degree Days  
Heating Degree Days 0 0  
Month to date heating degree days 0 0  
Since 1 June heating degree days 0 0  
Since 1 July heating degree days 0 0  
Cooling Degree Days 17 18  
Month to date cooling degree days 154 173  
Year to date cooling degree days 921 942  
Since 1 June cooling degree days 611 606  
Growing Degree Days 30 (Base 50)    
Moisture  
Dew Point 74 °F    
Average Humidity 83    
Maximum Humidity 100    
Minimum Humidity 63    
Precipitation  
Precipitation 0.33 in 0.20 in 2.68 in (2012)
Month to date precipitation 5.83 1.95  
Year to date precipitation 29.37 23.68  
Sea Level Pressure  
Sea Level Pressure 30.07 in    
Wind  
Wind Speed 3 mph (SSW)    
Max Wind Speed 16 mph    
Max Gust Speed 21 mph    
Visibility 9 miles    
Events Rain    
T = Trace of Precipitation, MM = Missing Value Source: NWS Daily Summary

Daily Weather History Graph

Daily Weather History Graph

Search for Another Location

Airport or City:

Trip Planner

Search our weather history database for the weather conditions in past years. The results will help you decide how hot, cold, wet, or windy it might be!

Date:

Astronomy

Jul. 10, 2013 Rise Set
Actual Time 6:21 AM EDT 8:37 PM EDT
Civil Twilight 5:52 AM EDT 9:06 PM EDT
Nautical Twilight 5:17 AM EDT 9:41 PM EDT
Astronomical Twilight 4:38 AM EDT 10:19 PM EDT
Moon 8:32 AM EDT (7/10) 9:56 PM EDT (7/10)
Length of Visible Light 15h 13m
Length of Day
14h 16m
Waxing Crescent, 5% of the Moon is Illuminated
Jul 10
Waxing Crescent
Jul 15
First Quarter
Jul 22
Full
Jul 29
Last Quarter
Aug 6
New

Hourly Weather History & Observations

Time (EDT) Temp. Heat Index Dew Point Humidity Pressure Visibility Wind Dir Wind Speed Gust Speed Precip Events Conditions
12:53 AM 75.9 °F - 75.0 °F 97% 30.13 in 7.0 mi Calm Calm - N/A   Scattered Clouds
1:53 AM 75.9 °F - 75.0 °F 97% 30.12 in 7.0 mi Calm Calm - N/A   Overcast
2:53 AM 75.0 °F - 73.9 °F 96% 30.09 in 9.0 mi Calm Calm - N/A   Clear
3:53 AM 75.0 °F - 73.0 °F 94% 30.08 in 9.0 mi Calm Calm - N/A   Partly Cloudy
4:53 AM 75.0 °F - 73.0 °F 94% 30.08 in 10.0 mi Calm Calm - N/A   Clear
5:53 AM 73.9 °F - 73.0 °F 97% 30.10 in 10.0 mi Calm Calm - N/A   Clear
6:53 AM 75.0 °F - 73.0 °F 94% 30.10 in 10.0 mi Calm Calm - N/A   Partly Cloudy
7:25 AM 75.2 °F - 73.4 °F 94% 30.11 in 10.0 mi Calm Calm - N/A   Scattered Clouds
7:36 AM 75.2 °F - 73.4 °F 94% 30.11 in 10.0 mi Calm Calm - N/A   Mostly Cloudy
7:45 AM 75.2 °F - 73.4 °F 94% 30.11 in 10.0 mi Calm Calm - N/A   Overcast
7:53 AM 75.9 °F - 73.9 °F 94% 30.11 in 10.0 mi Calm Calm - N/A   Overcast
8:37 AM 77.0 °F - 73.4 °F 89% 30.12 in 10.0 mi South 4.6 mph - N/A   Mostly Cloudy
8:53 AM 78.1 °F - 73.9 °F 87% 30.12 in 10.0 mi SSW 5.8 mph - N/A   Overcast
9:53 AM 80.1 °F 84.2 °F 73.0 °F 79% 30.11 in 10.0 mi South 9.2 mph - N/A   Partly Cloudy
10:53 AM 81.0 °F 86.2 °F 73.9 °F 79% 30.10 in 10.0 mi Variable 3.5 mph - N/A   Partly Cloudy
11:30 AM 82.4 °F 88.2 °F 73.4 °F 74% 30.11 in 10.0 mi South 4.6 mph - N/A   Mostly Cloudy
11:53 AM 84.0 °F 90.2 °F 73.0 °F 69% 30.10 in 10.0 mi SW 5.8 mph - N/A   Overcast
12:18 PM 84.2 °F 90.9 °F 73.4 °F 70% 30.10 in 10.0 mi SSW 8.1 mph - N/A   Mostly Cloudy
12:53 PM 84.9 °F 90.7 °F 72.0 °F 65% 30.08 in 10.0 mi South 8.1 mph - N/A   Mostly Cloudy
1:53 PM 87.1 °F 95.4 °F 73.9 °F 65% 30.06 in 10.0 mi Variable 5.8 mph - N/A   Scattered Clouds
2:53 PM 86.0 °F 93.0 °F 73.0 °F 65% 30.03 in 10.0 mi Variable 6.9 mph - N/A   Scattered Clouds
3:53 PM 87.1 °F 94.5 °F 73.0 °F 63% 30.01 in 10.0 mi Variable 5.8 mph - N/A   Mostly Cloudy
4:53 PM 86.0 °F 93.0 °F 73.0 °F 65% 29.99 in 10.0 mi South 4.6 mph - N/A   Mostly Cloudy
5:42 PM 80.6 °F 86.2 °F 75.2 °F 84% 30.00 in 2.0 mi SSW 3.5 mph - N/A Rain Heavy Rain
5:53 PM 80.1 °F 84.5 °F 73.9 °F 81% 29.99 in 6.0 mi South 5.8 mph - N/A Rain Light Rain
6:53 PM 84.0 °F 92.6 °F 75.9 °F 76% 29.98 in 10.0 mi SW 5.8 mph - N/A   Clear
7:53 PM 82.9 °F 89.4 °F 73.9 °F 74% 29.99 in 10.0 mi WSW 4.6 mph - N/A   Clear
8:53 PM 82.0 °F 87.9 °F 73.9 °F 76% 29.99 in 10.0 mi SSW 3.5 mph - N/A   Partly Cloudy
9:53 PM 80.1 °F 84.2 °F 73.0 °F 79% 30.01 in 10.0 mi Calm Calm - N/A   Partly Cloudy
10:53 PM 78.1 °F - 75.0 °F 90% 30.00 in 10.0 mi Calm Calm - 0.01 in   Clear
11:53 PM 78.1 °F - 73.9 °F 87% 30.00 in 10.0 mi Calm Calm - N/A   Partly Cloudy